Wind_Speed
22 18 16 19 18 16 17 18 18 18 16 16 18 19 22 28 29 29 32 34 30 22 19 18 19 20 20 20 20 20 20 20 18 17 16 15 15 15 15 16 16 17 17 18 18 20 21 22 22 22 21 20 20 21 21 20 18 18 18 16 14 15
20 19 19 20 20 20 20 18 19 18 14 13 14 16 18 24 27 29 30 29 23 19 18 18 19 20 19 19 19 19 19 19 18 17 16 15 15 15 15 16 17 17 17 18 18 19 21 22 23 23 22 22 22 23 22 21 20 19 19 16 16 17
19 22 23 23 23 22 19 17 19 16 12 12 14 17 19 22 24 25 23 21 18 18 19 19 20 19 18 17 17 18 19 19 18 16 16 16 16 16 16 16 17 17 17 17 18 19 21 23 24 24 24 24 24 24 23 22 22 21 20 17 17 19
20 23 24 24 23 21 18 17 16 13 11 12 13 16 18 19 19 20 19 18 18 19 21 20 19 17 16 17 17 18 19 19 17 16 16 16 16 16 16 17 17 17 17 17 17 19 21 22 23 24 24 25 25 25 24 24 24 23 20 18 19 20
22 24 23 22 20 19 18 14 12 13 13 13 12 12 14 15 16 17 17 18 18 19 21 19 16 16 15 17 18 19 18 17 17 16 16 16 16 16 16 17 17 18 17 17 17 18 20 22 22 23 24 25 25 25 25 25 24 23 21 20 20 21
25 24 21 20 19 18 16 14 13 13 13 12 11 10 10 12 14 15 15 15 14 16 18 15 14 16 15 16 18 19 18 17 17 17 17 16 17 16 16 16 16 17 17 17 17 18 19 21 22 23 24 24 25 25 24 24 24 24 22 21 21 21
25 22 20 18 16 15 14 14 15 14 12 12 12 12 12 12 12 14 15 14 14 16 16 13 14 17 16 17 19 18 16 16 17 18 18 18 19 18 17 16 15 15 15 16 16 17 18 20 22 23 24 24 24 25 24 24 24 24 22 21 22 22
22 19 17 17 15 13 13 13 14 14 13 12 13 14 15 14 13 15 16 16 16 15 14 13 15 17 16 17 18 15 13 14 17 18 17 17 18 16 16 16 15 14 14 14 15 16 18 19 20 22 22 23 24 25 24 23 23 23 22 22 22 22
18 16 13 15 16 15 15 14 14 14 13 11 11 13 16 18 17 16 15 15 15 16 16 15 16 17 15 17 18 16 14 15 16 17 16 15 15 14 13 14 14 15 15 14 14 15 17 18 19 20 21 22 23 24 24 23 23 23 23 22 22 22
16 15 13 15 15 15 15 14 13 12 13 12 12 13 15 18 18 15 13 13 14 15 16 16 16 16 15 16 18 18 16 16 17 18 19 18 16 14 13 13 14 15 15 14 14 15 16 17 18 18 20 21 21 22 23 22 23 23 24 24 23 23
15 15 15 14 13 14 13 13 13 12 13 13 13 12 12 14 13 11 11 12 13 14 14 14 15 15 15 16 17 17 16 15 16 18 19 18 17 15 13 12 13 14 15 15 14 15 15 15 16 16 18 20 20 21 22 22 23 23 24 24 23 22
16 17 16 14 13 13 13 13 13 12 11 11 12 11 10 10 11 11 10 11 12 13 12 13 13 13 14 16 15 15 15 13 14 16 16 15 15 15 14 12 11 11 12 14 14 15 16 15 15 15 16 18 19 20 22 22 23 24 24 25 24 23
16 19 17 16 13 11 12 12 11 10 9 9 9 9 9 8 9 11 11 11 12 13 13 13 13 12 13 14 14 14 13 12 13 14 14 13 13 12 12 11 11 11 12 14 14 14 15 15 15 14 14 15 16 18 20 22 23 24 24 24 24 23
14 18 16 15 13 12 12 11 10 9 7 7 6 7 10 9 9 11 11 11 13 14 13 13 13 12 12 12 12 12 12 12 12 13 13 12 12 11 10 10 10 10 10 13 13 11 12 14 14 13 13 14 15 16 18 20 22 23 23 23 23 22
14 16 14 12 12 13 13 11 10 8 6 6 7 9 12 12 12 12 12 12 12 13 13 13 12 11 10 9 9 10 11 12 11 11 12 12 10 9 8 8 8 8 8 10 11 9 9 12 13 13 14 15 15 15 17 19 21 22 22 21 21 21
12 15 14 11 11 12 10 9 10 10 8 10 13 14 15 14 14 14 14 13 12 12 13 13 11 10 8 7 8 10 12 12 10 11 12 11 10 8 7 7 6 7 7 8 9 8 9 11 12 13 15 15 15 16 19 20 21 22 21 21 21 22
11 13 12 10 11 12 8 5 8 11 13 16 18 18 17 15 15 15 15 14 13 12 12 12 12 10 9 8 8 10 12 12 11 11 10 10 10 8 8 8 7 7 7 8 8 9 10 12 13 14 15 15 16 17 18 18 19 20 19 20 21 21
11 13 12 10 12 13 10 8 12 14 16 17 17 16 16 15 14 14 15 14 14 13 12 12 11 11 10 9 9 10 12 12 11 11 10 10 9 8 8 10 9 9 8 8 9 10 11 12 13 13 14 14 15 16 17 18 17 18 17 18 19 18
12 14 14 12 14 14 12 12 14 15 16 16 15 14 14 14 15 15 15 15 15 14 13 12 11 11 11 10 11 12 13 13 11 10 11 11 9 8 8 9 10 10 10 9 9 10 10 12 12 12 13 13 14 15 17 17 16 16 17 16 17 17
16 16 17 16 16 13 11 13 15 15 15 15 14 14 14 14 15 15 16 16 16 15 14 13 12 11 11 11 12 13 14 16 14 12 12 12 10 9 7 7 9 10 11 10 10 10 10 11 12 12 12 12 13 13 15 16 14 14 15 15 15 15
18 18 20 19 17 13 12 15 15 15 15 15 15 15 14 15 15 16 16 16 17 17 15 13 12 12 11 12 13 13 14 16 17 15 14 13 12 10 9 8 9 10 11 11 10 10 11 12 12 12 12 12 13 12 13 14 13 12 14 14 14 13
19 20 24 23 19 15 15 15 15 16 16 16 16 16 16 16 17 17 17 16 17 17 17 14 13 12 12 12 13 14 14 16 17 16 16 15 14 12 11 10 10 11 11 11 10 10 12 13 13 12 13 12 12 11 12 14 13 13 12 13 13 12
21 23 26 26 22 17 17 17 17 17 17 17 17 17 18 18 18 18 17 17 17 17 17 16 14 13 13 13 13 14 14 15 15 16 16 16 16 15 13 11 10 11 10 10 11 11 13 15 14 13 13 11 10 11 11 12 12 12 11 12 11 12
23 24 24 25 23 18 18 19 18 19 18 18 18 18 19 19 18 18 17 17 17 17 17 17 16 14 14 14 14 14 14 13 14 15 16 17 17 16 14 12 11 11 11 12 12 13 14 15 16 15 14 12 10 11 11 11 10 11 12 12 10 11
24 24 23 24 22 17 18 19 19 19 19 18 18 18 19 19 18 17 17 17 17 17 16 17 17 16 14 14 14 14 13 12 12 13 15 16 17 17 16 16 15 14 14 14 13 13 14 15 16 16 15 14 13 12 12 11 11 11 12 11 10 11
24 25 24 26 22 18 18 20 20 20 19 18 17 17 17 18 17 16 16 16 16 16 16 16 16 15 15 14 14 14 13 12 12 12 14 15 17 17 18 18 18 17 16 15 14 13 13 14 15 15 15 14 14 14 14 14 13 12 13 12 11 12
25 25 25 28 23 19 20 20 20 20 18 16 15 15 15 15 15 14 14 15 15 14 14 14 14 14 15 15 15 15 15 14 13 13 14 15 16 17 18 19 19 19 18 16 15 14 14 14 15 15 15 16 15 15 15 16 15 16 15 14 14 14
25 27 29 28 23 19 20 20 20 19 16 15 14 14 14 14 13 13 13 14 14 14 13 12 12 13 14 15 16 16 17 18 18 17 17 17 17 17 18 19 19 20 19 18 16 16 15 15 15 15 16 17 17 16 16 17 17 17 17 15 14 15
22 25 29 28 22 19 19 19 18 17 15 14 14 14 14 14 13 13 13 13 14 14 14 13 13 14 15 16 17 18 19 20 21 21 21 20 18 18 18 19 19 20 20 19 18 18 17 16 17 17 16 17 17 17 17 17 17 17 16 15 15 16
20 20 24 24 21 19 19 18 18 16 14 14 15 15 15 14 13 13 13 14 14 15 15 16 16 17 18 18 19 19 20 21 22 22 23 22 21 19 19 19 20 20 20 19 19 19 18 18 18 17 16 16 18 18 18 17 17 16 17 18 18 18
20 21 23 22 21 20 19 18 17 15 14 15 15 15 15 15 14 14 15 16 17 18 18 19 19 20 20 21 21 21 21 21 22 22 23 23 22 21 20 20 21 20 20 19 19 19 19 19 19 17 16 18 19 18 17 16 17 18 19 21 20 20
21 22 23 21 20 20 18 17 16 15 15 15 15 16 16 16 17 17 18 19 20 20 20 20 21 22 22 23 23 22 21 21 21 21 22 22 21 21 20 21 21 20 19 18 18 18 18 18 18 18 19 20 20 19 17 18 18 19 20 21 21 21
24 25 26 23 20 19 18 17 17 17 17 16 16 17 17 18 18 19 20 20 20 19 20 21 23 23 23 23 22 22 21 20 19 19 19 19 19 19 19 20 21 20 18 17 16 16 16 16 17 18 19 19 19 20 20 20 21 20 21 22 22 22
26 27 29 27 25 23 20 19 19 19 18 17 17 18 18 19 20 20 21 20 19 19 20 22 23 22 21 20 20 20 19 18 18 18 17 17 16 16 17 19 20 19 17 15 14 13 13 14 15 15 17 17 18 19 20 20 21 22 22 22 22 21
25 28 29 29 28 26 23 21 20 20 19 19 19 19 19 20 20 20 20 19 18 19 20 20 19 19 19 18 19 18 17 17 17 17 16 16 15 15 16 17 17 16 15 13 12 11 11 12 13 14 15 16 17 18 19 20 21 21 21 21 21 20
23 26 30 31 29 27 25 22 20 20 21 20 19 19 20 20 19 19 18 18 19 19 19 18 17 17 17 19 19 18 18 17 17 17 17 16 16 15 15 14 14 12 11 10 10 9 10 11 12 13 14 15 16 17 18 19 19 20 20 20 20 19
23 25 29 31 31 28 26 24 22 22 22 22 21 21 20 19 19 18 18 18 19 19 19 19 18 17 16 18 19 19 19 19 19 18 17 16 15 15 14 13 11 10 9 8 8 8 9 10 11 12 13 14 15 15 16 17 17 18 18 18 18 17
Wind_Direction
287 288 281 280 287 284 285 285 275 267 262 260 265 273 270 264 261 257 254 253 252 251 251 257 265 270 272 273 274 273 275 277 277 276 275 273 271 266 263 260 259 257 256 255 252 246 241 239 238 235 235 238 242 244 247 249 251 250 249 251 254 258
286 283 275 279 283 283 286 280 274 267 255 258 265 270 264 259 257 254 255 253 251 253 257 268 275 274 273 272 272 273 274 275 275 276 277 274 271 266 262 260 259 258 257 255 253 249 244 240 238 237 236 238 240 243 246 249 251 250 250 249 250 255
285 279 275 277 279 283 283 280 279 264 250 266 270 268 262 258 256 254 254 252 251 256 265 274 274 272 274 273 273 274 274 273 274 276 276 273 269 265 262 260 259 259 259 256 253 251 246 241 238 238 238 238 241 243 245 248 250 250 251 250 250 253
280 277 275 273 274 274 275 280 278 259 260 276 274 271 261 252 251 250 248 249 255 262 270 273 270 274 277 276 275 272 271 272 275 277 275 272 268 265 262 260 259 257 258 257 253 250 248 244 239 238 239 240 242 243 245 247 248 251 252 251 253 256
282 278 273 270 269 268 270 270 257 255 268 269 265 262 250 246 249 250 247 248 254 261 268 269 271 281 280 278 276 273 274 276 277 277 273 270 269 267 262 260 257 255 254 253 249 247 247 246 243 240 241 242 244 245 247 249 250 252 253 252 254 257
282 278 273 269 267 266 268 260 249 253 259 255 254 244 242 260 259 255 253 250 250 255 261 263 274 285 281 280 282 281 279 278 278 275 273 272 271 267 264 261 256 253 252 251 248 247 245 245 244 242 242 243 246 248 250 252 255 255 255 255 257 258
275 271 273 271 265 263 260 253 250 250 247 245 247 240 251 273 266 256 256 251 247 252 259 265 277 279 277 280 285 287 280 280 284 279 277 276 271 267 263 261 255 252 253 255 253 250 249 246 245 244 244 244 247 250 251 254 256 258 257 257 257 257
270 263 268 273 270 263 255 249 247 245 242 239 243 246 254 264 260 257 254 251 252 259 271 276 275 273 276 280 284 289 286 290 293 286 283 280 276 275 268 260 252 251 255 258 257 253 251 249 248 247 246 246 247 250 251 253 256 258 258 256 256 255
270 265 261 265 267 264 258 256 251 244 243 243 253 257 254 252 252 256 255 257 262 268 276 276 274 277 280 278 276 283 284 282 283 280 278 274 274 279 271 262 255 254 256 256 256 256 253 250 250 251 251 248 247 249 251 251 253 255 256 255 253 253
266 266 256 254 258 259 256 255 250 244 244 249 261 262 254 248 248 258 264 268 274 275 276 275 280 284 281 278 276 282 286 278 274 274 273 270 269 270 263 261 264 260 257 255 256 259 258 254 253 253 254 251 247 249 251 250 252 254 255 255 252 252
260 260 257 255 250 252 256 251 250 253 256 258 257 256 254 249 249 267 277 276 280 284 285 286 291 290 285 287 285 284 286 281 276 274 274 274 272 269 261 261 267 259 255 255 255 257 257 258 257 254 253 253 250 250 251 250 252 253 255 256 254 252
254 252 252 255 250 250 255 251 254 258 257 253 248 252 264 268 269 278 286 284 284 287 290 291 292 294 292 294 294 289 286 283 278 275 277 277 272 269 267 267 270 261 259 257 252 253 255 258 262 259 255 255 254 254 253 252 253 254 255 257 257 254
255 253 245 248 250 247 245 242 244 243 239 245 248 262 275 279 280 283 289 292 293 293 291 287 286 292 296 295 297 295 287 285 281 277 279 280 274 273 273 274 274 267 263 258 251 251 254 258 262 263 262 260 259 258 257 256 255 254 255 257 259 256
250 250 241 240 242 240 237 228 227 226 235 258 256 260 275 283 284 285 291 294 294 296 294 292 290 291 293 293 296 296 290 286 284 281 279 277 275 277 278 277 273 265 260 251 243 248 256 260 262 261 263 261 258 259 261 259 257 256 255 257 259 259
240 243 244 238 234 238 234 224 235 247 244 259 256 259 280 292 292 288 290 292 294 296 296 297 298 296 293 291 292 295 290 285 287 286 278 272 270 272 277 281 268 259 264 241 230 251 258 258 262 258 261 261 258 262 265 261 260 259 258 259 261 263
236 241 249 241 234 242 238 222 241 259 258 269 276 278 285 290 290 288 287 290 294 295 296 298 300 302 299 288 282 281 279 282 286 284 278 275 277 279 281 288 273 263 266 227 224 263 262 257 262 257 259 262 261 266 267 265 265 263 261 261 261 262
232 232 246 241 239 251 256 244 251 263 268 272 276 277 277 279 281 281 281 286 290 293 295 298 300 301 298 290 282 275 273 282 286 281 282 284 288 289 282 285 283 276 262 222 234 273 269 263 262 257 259 260 261 265 268 270 269 268 265 262 260 261
229 232 247 237 236 246 252 263 265 265 265 264 267 268 268 272 276 278 281 283 285 288 290 294 297 296 293 286 280 274 271 282 288 282 281 286 288 285 279 281 282 282 272 246 255 270 265 263 260 257 260 261 263 266 269 271 269 273 275 268 263 263
241 243 251 238 232 240 249 261 262 259 258 259 263 267 270 274 277 279 282 281 281 283 284 286 289 290 289 283 277 274 270 276 288 288 279 281 285 280 275 274 275 277 275 268 269 265 258 260 259 258 260 262 265 267 271 271 270 274 275 272 268 266
248 247 254 244 233 239 252 254 251 251 254 257 261 265 271 275 278 280 281 281 280 280 282 281 282 285 286 284 277 273 271 274 286 291 280 279 282 281 275 268 272 275 272 270 270 263 258 259 258 260 263 265 267 268 271 273 274 276 274 272 270 269
252 253 257 249 239 247 253 246 245 249 252 256 260 264 270 273 276 279 279 280 279 279 280 277 276 277 277 278 275 270 270 273 281 284 280 280 277 278 280 270 270 273 267 263 263 260 259 258 256 259 262 266 268 266 267 271 273 273 273 274 273 272
255 255 257 250 243 251 252 246 249 252 255 258 261 265 268 270 273 275 277 278 278 279 280 278 276 275 274 275 275 274 273 274 278 279 279 281 278 277 278 268 261 264 263 262 262 261 261 261 260 261 263 267 268 263 264 267 270 270 272 274 276 276
250 250 254 245 238 248 251 249 252 254 257 260 263 267 269 270 271 272 275 276 278 279 280 283 281 278 277 277 277 276 275 276 279 279 277 278 279 280 279 270 262 263 264 266 265 263 263 266 268 266 267 269 267 269 270 266 270 273 270 269 273 276
248 250 251 237 232 245 247 248 253 254 258 259 262 266 267 270 271 272 275 276 278 278 279 283 282 280 278 277 278 276 274 274 276 280 280 277 278 280 282 282 278 272 269 267 265 262 262 265 269 269 270 273 272 273 270 268 275 275 267 263 264 268
247 249 245 231 234 248 248 250 255 254 257 259 260 264 265 268 270 274 279 280 280 280 279 280 279 278 275 272 273 273 274 275 277 281 283 282 280 279 279 281 279 273 267 264 263 264 263 264 268 270 272 276 279 276 272 277 280 273 268 265 259 263
242 245 240 230 240 254 251 254 256 257 260 260 261 262 263 266 270 276 280 281 282 283 283 282 279 275 270 266 263 263 266 271 278 283 283 283 282 279 276 274 272 269 266 266 266 268 268 268 271 273 275 277 277 276 277 281 280 276 275 271 267 269
241 246 236 230 244 255 252 255 257 259 261 261 261 259 259 263 268 273 274 277 280 284 288 287 285 280 274 270 265 261 260 263 271 280 285 284 281 280 276 272 269 268 268 268 270 271 273 274 275 278 280 279 278 276 278 279 279 279 274 269 270 271
243 244 232 233 248 252 249 253 255 258 258 258 259 255 257 259 261 265 267 270 274 279 285 286 286 283 279 278 275 271 267 266 270 276 285 288 285 283 278 274 271 269 270 270 271 274 275 276 277 278 277 276 277 277 279 281 280 279 273 265 267 270
240 237 229 234 246 243 245 250 250 254 254 253 256 253 253 253 253 258 259 262 266 271 277 281 282 280 278 278 277 276 274 272 273 276 283 287 288 286 283 279 274 270 271 270 271 272 273 275 277 277 274 273 276 278 281 283 279 277 272 264 265 272
240 235 226 233 241 238 242 246 248 251 251 250 252 250 250 251 254 258 261 264 268 273 279 282 283 282 281 279 277 277 276 275 275 277 282 285 286 286 285 283 275 269 268 268 269 270 271 274 274 275 274 275 279 280 280 278 273 273 270 265 269 275
255 243 232 239 247 242 239 244 250 253 251 250 249 250 255 261 268 274 277 280 281 285 288 289 290 289 288 286 283 282 280 279 278 279 281 282 281 280 281 281 276 268 264 264 266 267 268 271 274 277 277 278 280 277 274 270 268 271 269 267 272 276
264 251 245 250 253 248 245 246 249 251 249 249 250 255 262 271 280 286 288 290 291 293 296 298 298 297 295 293 291 288 284 283 282 282 281 279 276 274 273 275 274 267 262 260 262 265 267 271 275 280 281 281 281 278 276 273 271 269 268 270 275 276
268 257 254 256 256 255 255 250 246 248 248 249 255 260 267 277 285 290 292 293 295 298 302 304 302 299 297 295 293 292 287 285 285 284 283 280 277 274 271 271 270 266 261 259 260 263 267 271 275 279 281 282 283 282 282 279 276 272 270 273 276 276
275 261 252 253 255 257 260 257 250 249 250 252 259 265 272 281 286 290 292 292 295 301 306 306 302 297 295 292 293 292 289 286 286 286 287 286 283 278 273 269 266 264 262 261 262 264 268 271 275 279 282 284 285 285 284 281 279 277 275 274 274 275
280 268 259 257 255 250 253 257 254 252 254 256 260 267 275 282 286 288 289 291 296 304 310 311 306 299 295 292 291 292 290 288 287 288 289 290 288 281 273 267 264 263 262 264 267 271 275 279 282 285 286 288 288 287 285 282 279 278 276 274 273 273
280 274 269 265 257 246 246 254 258 256 256 257 261 269 276 280 282 284 287 292 296 301 308 312 311 304 297 292 290 290 288 286 286 287 289 291 288 282 275 269 265 263 264 267 273 282 289 293 295 295 294 292 290 287 285 282 279 277 275 274 273 272
279 278 272 266 257 249 249 257 264 262 258 259 263 268 274 276 277 281 285 289 291 296 302 307 310 307 300 294 291 289 287 284 283 283 285 288 286 281 275 271 267 266 267 273 280 289 296 301 303 303 302 299 295 291 287 282 279 277 276 275 275 274
Height
5809 5810 5810 5807 5806 5806 5807 5807 5805 5803 5805 5807 5808 5808 5808 5809 5810 5810 5809 5808 5808 5809 5810 5811 5811 5811 5811 5812 5813 5814 5814 5813 5813 5812 5812 5812 5812 5813 5813 5813 5813 5813 5813 5813 5814 5814 5815 5816 5817 5819 5820 5821 5821 5821 5822 5823 5823 5823 5824 5825 5826 5826
5809 5809 5807 5805 5805 5805 5806 5806 5804 5802 5805 5807 5807 5807 5807 5808 5808 5808 5808 5808 5809 5809 5809 5809 5809 5809 5810 5811 5812 5812 5812 5811 5811 5811 5810 5810 5810 5811 5811 5811 5811 5812 5812 5812 5812 5812 5813 5815 5816 5817 5818 5819 5819 5820 5821 5821 5822 5822 5823 5825 5825 5825
5809 5808 5805 5804 5803 5804 5804 5804 5801 5800 5804 5806 5807 5807 5806 5807 5807 5806 5807 5807 5808 5808 5807 5807 5807 5807 5809 5810 5810 5810 5810 5809 5809 5809 5809 5809 5809 5809 5809 5809 5809 5810 5810 5811 5810 5810 5811 5812 5814 5815 5816 5817 5817 5818 5820 5820 5820 5820 5822 5824 5824 5824
5808 5806 5804 5803 5802 5802 5803 5803 5800 5799 5802 5805 5805 5805 5805 5806 5806 5805 5807 5807 5807 5806 5804 5804 5805 5805 5808 5808 5809 5808 5808 5808 5807 5807 5807 5807 5807 5807 5807 5808 5808 5808 5809 5809 5809 5809 5809 5810 5812 5813 5814 5815 5816 5817 5818 5818 5819 5819 5821 5823 5823 5824
5805 5802 5801 5801 5800 5801 5801 5801 5801 5800 5801 5803 5803 5804 5803 5805 5805 5805 5806 5806 5806 5804 5801 5801 5804 5804 5806 5807 5806 5806 5806 5805 5805 5805 5805 5805 5805 5805 5805 5806 5806 5806 5806 5806 5807 5807 5807 5807 5809 5811 5812 5813 5814 5816 5816 5816 5817 5818 5820 5822 5822 5823
5803 5799 5798 5799 5800 5800 5800 5800 5800 5801 5801 5802 5802 5803 5803 5803 5804 5803 5803 5802 5802 5801 5797 5799 5803 5803 5804 5804 5803 5803 5803 5803 5803 5803 5803 5804 5803 5803 5803 5803 5804 5804 5804 5804 5804 5805 5805 5806 5807 5808 5810 5811 5812 5813 5814 5815 5815 5816 5819 5820 5821 5821
5802 5798 5795 5796 5798 5800 5800 5799 5800 5801 5802 5802 5801 5801 5801 5801 5801 5801 5801 5800 5799 5798 5796 5798 5801 5801 5800 5801 5799 5800 5800 5800 5801 5801 5802 5802 5801 5801 5801 5801 5802 5802 5802 5802 5802 5803 5803 5804 5805 5806 5808 5809 5810 5811 5812 5813 5814 5814 5817 5819 5819 5820
5799 5798 5797 5795 5796 5798 5799 5799 5800 5801 5802 5801 5801 5800 5799 5799 5799 5799 5799 5799 5798 5797 5797 5799 5800 5798 5798 5798 5798 5799 5797 5797 5799 5799 5801 5801 5799 5798 5799 5799 5800 5800 5801 5801 5801 5802 5802 5803 5804 5805 5806 5808 5809 5809 5811 5812 5812 5813 5814 5816 5817 5817
5796 5797 5799 5796 5795 5797 5797 5798 5798 5799 5799 5800 5799 5798 5797 5796 5796 5797 5798 5797 5797 5797 5798 5800 5800 5798 5798 5797 5797 5797 5797 5797 5797 5798 5798 5799 5798 5798 5797 5797 5798 5799 5799 5800 5800 5800 5801 5802 5803 5803 5804 5806 5807 5808 5809 5810 5811 5811 5812 5813 5814 5815
5796 5796 5797 5795 5794 5794 5794 5795 5796 5796 5797 5798 5797 5796 5795 5794 5795 5796 5796 5796 5796 5796 5797 5798 5799 5798 5798 5797 5796 5796 5797 5797 5796 5796 5796 5796 5796 5796 5796 5796 5797 5798 5798 5798 5799 5800 5800 5801 5801 5802 5803 5804 5805 5806 5807 5808 5809 5809 5809 5809 5811 5812
5795 5794 5794 5793 5792 5792 5793 5794 5794 5794 5795 5795 5795 5794 5793 5793 5793 5794 5794 5795 5795 5795 5796 5797 5798 5798 5797 5797 5796 5796 5796 5796 5796 5795 5795 5794 5794 5795 5795 5795 5796 5797 5797 5797 5798 5799 5799 5800 5800 5801 5802 5802 5804 5805 5805 5806 5807 5807 5807 5807 5808 5810
5793 5792 5792 5791 5791 5792 5793 5793 5793 5793 5793 5793 5793 5793 5791 5791 5792 5793 5794 5794 5794 5795 5796 5797 5797 5797 5797 5796 5796 5795 5795 5795 5794 5794 5794 5794 5794 5794 5795 5795 5796 5796 5796 5795 5796 5798 5798 5799 5799 5800 5800 5801 5802 5803 5804 5804 5805 5805 5805 5805 5806 5807
5791 5789 5791 5790 5790 5792 5793 5792 5793 5792 5793 5793 5792 5791 5789 5790 5792 5792 5792 5791 5792 5795 5796 5796 5797 5797 5797 5796 5796 5795 5794 5793 5792 5792 5793 5794 5794 5794 5795 5795 5795 5795 5795 5795 5795 5796 5798 5798 5798 5799 5799 5800 5801 5801 5802 5802 5803 5803 5804 5804 5804 5804
5791 5787 5788 5791 5791 5791 5792 5791 5791 5792 5793 5792 5793 5791 5788 5789 5791 5790 5790 5790 5791 5793 5794 5795 5795 5796 5796 5796 5795 5794 5793 5791 5791 5791 5792 5793 5793 5794 5794 5794 5793 5793 5794 5794 5794 5795 5796 5798 5798 5799 5799 5799 5800 5800 5800 5800 5800 5801 5802 5803 5803 5802
5792 5789 5786 5790 5792 5791 5791 5791 5791 5792 5793 5792 5792 5792 5788 5788 5789 5790 5789 5790 5792 5792 5793 5794 5794 5795 5795 5795 5794 5794 5792 5790 5789 5790 5790 5791 5792 5792 5792 5793 5793 5793 5793 5793 5794 5795 5796 5797 5798 5799 5798 5798 5798 5798 5798 5798 5798 5800 5802 5803 5803 5802
5791 5791 5788 5788 5790 5790 5790 5791 5791 5790 5790 5790 5790 5789 5788 5788 5788 5789 5790 5790 5792 5792 5792 5793 5793 5794 5794 5794 5793 5793 5791 5788 5788 5789 5789 5790 5790 5790 5791 5792 5792 5793 5792 5791 5792 5793 5795 5797 5798 5798 5798 5798 5798 5797 5797 5797 5798 5799 5802 5803 5803 5802
5790 5792 5790 5788 5788 5789 5789 5788 5789 5788 5787 5788 5787 5788 5789 5789 5789 5789 5790 5790 5791 5791 5792 5792 5792 5793 5793 5793 5793 5792 5789 5787 5787 5788 5788 5789 5789 5789 5790 5792 5791 5792 5792 5791 5791 5792 5794 5796 5797 5797 5797 5797 5797 5796 5796 5797 5797 5798 5800 5801 5800 5801
5790 5791 5790 5788 5788 5789 5789 5787 5786 5786 5786 5787 5787 5788 5788 5788 5788 5788 5789 5789 5790 5790 5790 5791 5791 5791 5792 5792 5792 5791 5789 5786 5786 5787 5788 5788 5789 5789 5790 5791 5791 5791 5792 5791 5791 5793 5794 5795 5796 5796 5796 5796 5796 5796 5795 5795 5796 5796 5798 5799 5799 5800
5788 5789 5788 5789 5789 5789 5788 5787 5785 5785 5785 5786 5787 5787 5786 5786 5786 5787 5787 5788 5789 5789 5789 5789 5790 5790 5791 5791 5790 5789 5788 5785 5784 5786 5787 5787 5788 5789 5790 5790 5790 5790 5791 5791 5792 5793 5793 5794 5794 5795 5795 5795 5795 5796 5794 5793 5794 5796 5796 5797 5798 5799
5786 5787 5787 5788 5789 5788 5787 5786 5785 5785 5785 5785 5785 5785 5785 5785 5785 5785 5786 5786 5787 5787 5788 5788 5788 5789 5789 5790 5789 5788 5787 5785 5783 5784 5785 5785 5786 5787 5789 5789 5789 5789 5790 5791 5792 5792 5792 5793 5793 5793 5793 5794 5794 5795 5794 5791 5793 5794 5794 5796 5797 5798
5785 5785 5785 5786 5787 5786 5785 5785 5785 5784 5784 5785 5784 5784 5784 5784 5784 5784 5785 5785 5786 5786 5787 5787 5787 5787 5788 5788 5788 5787 5786 5785 5784 5784 5783 5784 5785 5786 5787 5788 5788 5789 5789 5790 5791 5790 5790 5791 5791 5791 5791 5792 5792 5793 5792 5790 5791 5793 5793 5794 5795 5796
5783 5784 5783 5784 5784 5784 5783 5783 5783 5783 5783 5783 5783 5783 5783 5783 5783 5783 5784 5784 5785 5785 5785 5786 5786 5786 5786 5786 5786 5786 5785 5785 5784 5783 5783 5783 5784 5785 5786 5787 5788 5789 5788 5789 5789 5788 5788 5788 5790 5790 5790 5790 5791 5791 5791 5790 5790 5791 5793 5793 5793 5794
5781 5781 5781 5781 5781 5781 5781 5781 5781 5782 5782 5782 5782 5782 5782 5782 5782 5782 5783 5783 5784 5784 5784 5784 5785 5785 5785 5785 5785 5785 5784 5784 5784 5783 5783 5783 5783 5784 5785 5786 5787 5787 5787 5787 5787 5787 5787 5787 5787 5788 5788 5789 5790 5789 5790 5791 5791 5791 5792 5792 5792 5793
5778 5779 5778 5779 5779 5778 5778 5779 5780 5780 5781 5781 5781 5781 5780 5780 5781 5781 5781 5782 5782 5783 5783 5783 5783 5783 5784 5784 5784 5784 5784 5784 5784 5783 5782 5782 5783 5783 5784 5784 5785 5785 5785 5786 5787 5787 5787 5786 5786 5786 5786 5788 5789 5789 5789 5790 5791 5791 5790 5791 5792 5792
5775 5775 5775 5777 5776 5774 5775 5777 5777 5778 5778 5779 5779 5779 5779 5779 5779 5780 5780 5780 5781 5781 5782 5782 5782 5782 5782 5783 5782 5782 5783 5783 5783 5782 5782 5781 5782 5782 5783 5783 5784 5784 5784 5785 5786 5786 5786 5785 5785 5785 5785 5786 5786 5787 5788 5788 5789 5790 5789 5789 5790 5790
5771 5771 5772 5773 5772 5772 5773 5774 5774 5775 5776 5776 5777 5777 5777 5778 5778 5779 5779 5779 5779 5780 5780 5781 5781 5781 5781 5781 5781 5781 5781 5781 5781 5782 5781 5781 5781 5782 5783 5783 5782 5782 5783 5783 5784 5784 5784 5784 5784 5784 5784 5784 5785 5785 5786 5787 5787 5788 5788 5788 5788 5789
5768 5768 5769 5770 5769 5769 5770 5771 5771 5772 5773 5774 5775 5775 5776 5776 5777 5777 5777 5778 5778 5778 5779 5779 5780 5780 5780 5780 5780 5780 5780 5780 5780 5780 5780 5780 5780 5781 5781 5781 5781 5780 5781 5782 5782 5782 5782 5783 5783 5783 5783 5783 5784 5784 5785 5785 5785 5785 5785 5786 5786 5787
5768 5767 5767 5767 5766 5767 5767 5767 5768 5769 5770 5772 5772 5773 5774 5774 5775 5775 5776 5776 5776 5777 5777 5778 5778 5779 5779 5779 5779 5779 5779 5779 5779 5778 5778 5779 5779 5779 5779 5779 5778 5778 5779 5779 5780 5780 5781 5781 5782 5783 5782 5781 5781 5783 5783 5783 5783 5782 5783 5784 5785 5785
5766 5766 5765 5763 5762 5763 5763 5764 5765 5767 5768 5769 5770 5771 5771 5772 5773 5774 5774 5775 5775 5775 5775 5776 5776 5777 5777 5778 5778 5778 5778 5777 5777 5777 5776 5776 5777 5776 5776 5776 5776 5776 5777 5777 5778 5779 5779 5780 5781 5781 5780 5780 5780 5781 5782 5781 5780 5780 5781 5782 5783 5783
5764 5764 5764 5760 5758 5760 5761 5762 5764 5766 5767 5767 5768 5769 5769 5770 5771 5772 5773 5773 5774 5774 5774 5775 5775 5775 5775 5775 5776 5776 5776 5776 5775 5775 5775 5774 5774 5774 5774 5775 5775 5775 5776 5776 5777 5777 5778 5779 5780 5780 5779 5779 5779 5780 5781 5781 5779 5778 5778 5779 5780 5781
5764 5764 5762 5759 5758 5759 5761 5762 5764 5765 5766 5766 5766 5767 5768 5769 5770 5771 5772 5772 5773 5773 5773 5774 5773 5773 5773 5773 5773 5773 5774 5774 5774 5773 5773 5772 5772 5772 5773 5773 5773 5774 5774 5775 5776 5776 5777 5778 5778 5778 5778 5778 5778 5779 5780 5780 5778 5778 5777 5777 5778 5779
5764 5764 5762 5761 5761 5761 5761 5763 5764 5764 5764 5764 5765 5766 5767 5768 5769 5770 5770 5770 5771 5771 5772 5772 5772 5771 5771 5771 5770 5771 5771 5771 5771 5771 5771 5770 5770 5770 5771 5771 5772 5772 5773 5774 5774 5774 5775 5776 5776 5776 5776 5776 5777 5777 5778 5778 5777 5777 5776 5775 5776 5777
5761 5761 5760 5761 5762 5762 5762 5762 5762 5762 5762 5763 5764 5765 5766 5766 5767 5768 5768 5769 5769 5770 5770 5770 5770 5769 5769 5768 5768 5768 5768 5769 5769 5769 5768 5768 5768 5768 5769 5769 5770 5770 5771 5771 5772 5772 5773 5773 5774 5774 5774 5774 5775 5775 5775 5775 5775 5775 5775 5773 5774 5774
5758 5757 5757 5758 5759 5760 5761 5762 5761 5761 5761 5762 5763 5764 5764 5765 5765 5766 5767 5767 5767 5768 5768 5768 5767 5767 5766 5766 5766 5766 5766 5766 5767 5766 5766 5766 5766 5766 5767 5767 5768 5768 5769 5769 5769 5770 5771 5771 5771 5772 5772 5772 5773 5772 5772 5773 5773 5773 5772 5772 5772 5772
5756 5755 5755 5756 5756 5757 5758 5760 5760 5761 5761 5761 5761 5762 5763 5764 5764 5764 5765 5765 5765 5766 5766 5765 5765 5764 5764 5764 5764 5764 5764 5765 5765 5765 5764 5764 5764 5764 5765 5765 5765 5766 5766 5767 5767 5767 5768 5769 5769 5770 5770 5770 5770 5770 5770 5770 5770 5770 5770 5769 5769 5770
5755 5755 5754 5755 5756 5756 5756 5758 5759 5760 5759 5759 5760 5761 5762 5762 5762 5762 5763 5764 5764 5763 5763 5763 5762 5762 5762 5762 5762 5762 5762 5763 5763 5763 5763 5762 5763 5763 5763 5763 5763 5763 5764 5764 5765 5765 5766 5766 5767 5767 5767 5768 5768 5768 5768 5768 5768 5768 5768 5767 5767 5767
5754 5754 5753 5754 5755 5755 5756 5757 5758 5758 5757 5757 5758 5759 5760 5760 5760 5761 5761 5762 5761 5762 5761 5761 5760 5760 5759 5760 5760 5760 5760 5761 5761 5761 5761 5761 5761 5761 5761 5761 5761 5761 5761 5762 5762 5763 5763 5763 5764 5765 5765 5765 5766 5766 5766 5766 5766 5766 5766 5766 5765 5765